Location: Hochstatterhof
(48.7256°N, 10.3487°E)
Time: 01:11:29
(UTC+00:00)

Meteor 2-2 Rocket - Pass Details

Date: 26 September 2023
Orbit: 852 x 927 km, 81.3° (Epoch: 30 November)

Event Time Altitude Azimuth Distance (km) Brightness Sun altitude
Exits shadow 02:35:21 54° 193° (SSW) 1,095 4.5 -25.3°
Maximum altitude 02:36:49 88° 283° (WNW) 910 4.2 -25.1°
Drops below altitude 10° 02:42:42 10° 11° (NNE) 2,566 7.2 -24.2°
Sets 02:45:08 0° 12° (NNE) 3,499 8.0 -23.9°
